Weather History for Decimomannu, Italy

Change the Weather History Date:

Monday, October 29, 2012

  Actual Average Record
Temperature  
Mean Temperature 55 °F -  
Max Temperature 61 °F 65 °F 86 °F (2013)
Min Temperature 49 °F 47 °F 44 °F (2010)
Degree Days  
Heating Degree Days 10    
Growing Degree Days 5 (Base 50)    
Moisture  
Dew Point 45 °F    
Average Humidity 69    
Maximum Humidity 88    
Minimum Humidity 39    
Precipitation  
Precipitation 0.01 in 0.09 in - ()
Sea Level Pressure  
Sea Level Pressure 29.86 in    
Wind  
Wind Speed 10 mph ()    
Max Wind Speed 17 mph    
Max Gust Speed 28 mph    
Visibility 6.4 miles    
Events Rain    
Averages and records for this station are not official NWS values.
T = Trace of Precipitation, MM = Missing Value Source: Averaged Metar Reports

Daily Weather History Graph

Daily Weather History Graph

Search for Another Location

Airport:

Trip Planner

Search our weather history database for the weather conditions in past years. The results will help you decide how hot, cold, wet, or windy it might be!

Date:

Astronomy

Oct. 29, 2012 Rise Set
Actual Time 6:49 AM CET 5:26 PM CET
Civil Twilight 6:21 AM CET 5:53 PM CET
Nautical Twilight 5:49 AM CET 6:25 PM CET
Astronomical Twilight 5:18 AM CET 6:56 PM CET
Moon 5:08 PM CET (10/29) 6:23 AM CET (10/29)
Length of Visible Light 11h 32m
Length of Day
10h 37m
Full, 100% of the Moon is Illuminated
Oct 29
Full
Oct 29
Full
Nov 7
Last Quarter
Nov 13
New
Nov 20
First Quarter

Hourly Weather History & Observations

Time (CET) Temp. Dew Point Humidity Pressure Visibility Wind Dir Wind Speed Gust Speed Precip Events Conditions
12:55 AM 53.6 °F 41.0 °F 62% 29.77 in 6.2 mi WNW 15.0 mph 27.6 mph N/A   Scattered Clouds
1:00 AM 53 °F 40 °F 51% 29.79 in 7 mi WNW 15.0 mph - -   Partly Cloudy
1:55 AM 51.8 °F 42.8 °F 71% 29.77 in 6.2 mi NW 11.5 mph - N/A   Scattered Clouds
2:55 AM 51.8 °F 42.8 °F 71% 29.80 in 6.2 mi NW 15.0 mph - N/A   Scattered Clouds
3:55 AM 51.8 °F 48.2 °F 88% 29.80 in 6.2 mi NW 5.8 mph - N/A Rain Light Rain
4:00 AM 52 °F 47 °F 79% 29.81 in 7 mi NW 5.8 mph - - Rain Light Rain
4:55 AM 51.8 °F 48.2 °F 88% 29.80 in 6.2 mi West 5.8 mph - N/A Rain Light Rain
5:55 AM 51.8 °F 46.4 °F 82% 29.77 in 6.2 mi WNW 10.4 mph - N/A Rain Light Rain
6:55 AM 50.0 °F 44.6 °F 82% 29.80 in 5.0 mi NW 13.8 mph - N/A Rain Light Rain
7:00 AM 50 °F 45 °F 77% 29.81 in 5 mi NW 13.8 mph - - Rain Light Rain
8:55 AM 53.6 °F 44.6 °F 72% 29.83 in 6.2 mi NW 17.3 mph - N/A   Scattered Clouds
9:55 AM 53.6 °F 46.4 °F 77% 29.83 in 6.2 mi NW 15.0 mph - N/A Rain Light Rain
10:55 AM 57.2 °F 42.8 °F 59% 29.86 in 6.2 mi WNW 10.4 mph - N/A Rain Light Rain
11:55 AM 60.8 °F 37.4 °F 42% 29.86 in 6.2 mi NW 13.8 mph 25.3 mph N/A   Scattered Clouds
12:55 PM 59.0 °F 41.0 °F 51% 29.86 in 6.2 mi NW 13.8 mph 25.3 mph N/A   Mostly Cloudy
1:00 PM 60 °F 42 °F 39% 29.88 in 9 mi NW 13.8 mph - -   Partly Cloudy
1:55 PM 59.0 °F 44.6 °F 59% 29.86 in 6.2 mi NW 12.7 mph - N/A   Mostly Cloudy
2:55 PM 59.0 °F 44.6 °F 59% 29.86 in 6.2 mi NW 9.2 mph - N/A   Mostly Cloudy
3:55 PM 57.2 °F 41.0 °F 55% 29.86 in 6.2 mi WNW 12.7 mph - N/A   Mostly Cloudy
4:00 PM 58 °F 42 °F 44% 29.88 in 11 mi WNW 12.7 mph - -   Partly Cloudy
4:55 PM 59.0 °F 42.8 °F 55% 29.89 in 6.2 mi WNW 8.1 mph - N/A   Mostly Cloudy
5:55 PM 57.2 °F 46.4 °F 67% 29.89 in 6.2 mi North 6.9 mph - N/A   Mostly Cloudy
6:55 PM 55.4 °F 48.2 °F 77% 29.89 in 6.2 mi NNE 3.5 mph - N/A   Scattered Clouds
7:00 PM 55 °F 48 °F 71% 29.92 in 7 mi NNE 3.5 mph - -   Mostly Cloudy
7:55 PM 55.4 °F 48.2 °F 77% 29.92 in 6.2 mi North 5.8 mph - N/A   Scattered Clouds
8:55 PM 53.6 °F 48.2 °F 82% 29.92 in 6.2 mi NNW 2.3 mph - N/A   Scattered Clouds
9:55 PM 53.6 °F 48.2 °F 82% 29.92 in 6.2 mi North 3.5 mph - N/A   Mostly Cloudy
10:00 PM 54 °F 48 °F 74% 29.95 in 6 mi North 3.5 mph - -   Mostly Cloudy
10:55 PM 51.8 °F 48.2 °F 88% 29.95 in 6.2 mi NNW 6.9 mph - N/A   Partly Cloudy
11:55 PM 50.0 °F 46.4 °F 87% 29.95 in 6.2 mi NE 2.3 mph - N/A   Partly Cloudy